TimeEST,TemperatureF,Dew PointF,Humidity,Sea Level PressureIn,VisibilityMPH,Wind Direction,Wind SpeedMPH,Gust SpeedMPH,PrecipitationIn,Events,Conditions,WindDirDegrees,DateUTC
12:55 AM,42.8,41.0,93,30.00,10.0,Calm,Calm,-,N/A,,Clear,0,2013-02-23 05:55:00
1:15 AM,42.8,41.0,93,29.99,10.0,ENE,6.9,-,N/A,,Clear,60,2013-02-23 06:15:00
1:35 AM,42.8,41.0,93,29.99,10.0,NE,3.5,-,N/A,,Clear,50,2013-02-23 06:35:00
1:55 AM,42.8,39.2,87,30.01,10.0,Calm,Calm,-,N/A,,Clear,0,2013-02-23 06:55:00
2:15 AM,42.8,41.0,93,30.00,10.0,Calm,Calm,-,N/A,,Partly Cloudy,0,2013-02-23 07:15:00
2:35 AM,42.8,39.2,87,29.98,10.0,NE,4.6,-,N/A,,Partly Cloudy,40,2013-02-23 07:35:00
2:55 AM,44.6,41.0,87,29.99,10.0,Calm,Calm,-,N/A,,Clear,0,2013-02-23 07:55:00
3:15 AM,42.8,39.2,87,29.98,10.0,Calm,Calm,-,N/A,,Partly Cloudy,0,2013-02-23 08:15:00
3:35 AM,42.8,41.0,93,30.00,10.0,Calm,Calm,-,N/A,Rain,Light Rain,0,2013-02-23 08:35:00
3:55 AM,42.8,41.0,93,29.99,9.0,Calm,Calm,-,N/A,Rain,Light Rain,0,2013-02-23 08:55:00
4:15 AM,42.8,41.0,93,30.00,10.0,Calm,Calm,-,N/A,Rain,Light Rain,0,2013-02-23 09:15:00
4:35 AM,41.0,39.2,93,29.99,9.0,Calm,Calm,-,N/A,Rain,Light Rain,0,2013-02-23 09:35:00
4:55 AM,41.0,41.0,100,29.97,6.0,Calm,Calm,-,N/A,Rain,Light Rain,0,2013-02-23 09:55:00
5:15 AM,42.8,41.0,93,29.96,10.0,Calm,Calm,-,N/A,,Light Drizzle,0,2013-02-23 10:15:00
5:35 AM,41.0,41.0,100,29.95,9.0,Calm,Calm,-,N/A,,Light Drizzle,0,2013-02-23 10:35:00
5:55 AM,41.0,41.0,100,29.95,8.0,Calm,Calm,-,N/A,,Light Drizzle,0,2013-02-23 10:55:00
6:15 AM,41.0,41.0,100,29.94,8.0,Calm,Calm,-,N/A,,Light Drizzle,0,2013-02-23 11:15:00
6:35 AM,41.0,41.0,100,29.95,7.0,Calm,Calm,-,N/A,,Light Drizzle,0,2013-02-23 11:35:00
6:55 AM,41.0,41.0,100,29.94,7.0,Calm,Calm,-,N/A,,Mostly Cloudy,0,2013-02-23 11:55:00
7:15 AM,41.0,41.0,100,29.95,4.0,Calm,Calm,-,N/A,,Partly Cloudy,0,2013-02-23 12:15:00
7:35 AM,41.0,41.0,100,29.95,7.0,Calm,Calm,-,N/A,,Mostly Cloudy,0,2013-02-23 12:35:00
7:55 AM,41.0,41.0,100,29.94,9.0,Calm,Calm,-,N/A,,Mostly Cloudy,0,2013-02-23 12:55:00
8:15 AM,42.8,42.8,100,29.94,8.0,Calm,Calm,-,N/A,,Partly Cloudy,0,2013-02-23 13:15:00
8:35 AM,42.8,42.8,100,29.94,9.0,Calm,Calm,-,N/A,,Clear,0,2013-02-23 13:35:00
8:55 AM,42.8,42.8,100,29.94,10.0,Calm,Calm,-,N/A,,Clear,0,2013-02-23 13:55:00
9:15 AM,42.8,42.8,100,29.96,8.0,SW,3.5,-,N/A,,Scattered Clouds,230,2013-02-23 14:15:00
9:35 AM,42.8,42.8,100,29.94,7.0,Calm,Calm,-,N/A,,Overcast,0,2013-02-23 14:35:00
9:55 AM,44.6,42.8,93,29.94,8.0,Calm,Calm,-,N/A,,Overcast,0,2013-02-23 14:55:00
10:15 AM,44.6,42.8,93,29.93,10.0,Calm,Calm,-,N/A,,Overcast,0,2013-02-23 15:15:00
10:35 AM,44.6,42.8,93,29.93,10.0,Calm,Calm,-,N/A,,Overcast,0,2013-02-23 15:35:00
10:55 AM,46.4,44.6,93,29.93,10.0,Calm,Calm,-,N/A,,Overcast,0,2013-02-23 15:55:00
11:15 AM,48.2,44.6,87,29.92,10.0,Calm,Calm,-,N/A,,Overcast,0,2013-02-23 16:15:00
11:35 AM,48.2,44.6,87,29.91,10.0,Calm,Calm,-,N/A,,Mostly Cloudy,0,2013-02-23 16:35:00
11:55 AM,50.0,44.6,82,29.92,10.0,Calm,Calm,-,N/A,,Mostly Cloudy,0,2013-02-23 16:55:00
12:15 PM,51.8,46.4,82,29.92,10.0,West,5.8,-,N/A,,Overcast,260,2013-02-23 17:15:00
12:35 PM,51.8,44.6,76,29.91,10.0,West,6.9,-,N/A,,Overcast,280,2013-02-23 17:35:00
12:55 PM,51.8,44.6,76,29.90,10.0,West,8.1,-,N/A,,Overcast,260,2013-02-23 17:55:00
1:15 PM,51.8,44.6,76,29.89,10.0,West,5.8,-,N/A,,Overcast,260,2013-02-23 18:15:00
1:35 PM,51.8,44.6,76,29.88,10.0,SW,6.9,-,N/A,,Overcast,220,2013-02-23 18:35:00
1:55 PM,51.8,44.6,76,29.87,10.0,SW,6.9,-,N/A,,Overcast,220,2013-02-23 18:55:00
2:15 PM,53.6,44.6,72,29.87,10.0,SW,5.8,-,N/A,,Overcast,220,2013-02-23 19:15:00
2:35 PM,53.6,44.6,72,29.86,10.0,SW,5.8,-,N/A,,Overcast,220,2013-02-23 19:35:00
2:55 PM,53.6,44.6,72,29.86,10.0,SW,5.8,-,N/A,,Overcast,230,2013-02-23 19:55:00
3:15 PM,55.4,46.4,72,29.86,10.0,WSW,6.9,-,N/A,,Overcast,240,2013-02-23 20:15:00
3:35 PM,55.4,44.6,67,29.85,10.0,WNW,5.8,-,N/A,,Mostly Cloudy,300,2013-02-23 20:35:00
3:55 PM,55.4,44.6,67,29.85,10.0,Variable,3.5,-,N/A,,Partly Cloudy,0,2013-02-23 20:55:00
4:15 PM,55.4,42.8,63,29.85,10.0,West,6.9,-,N/A,,Clear,260,2013-02-23 21:15:00
4:35 PM,55.4,44.6,67,29.85,10.0,West,9.2,-,N/A,,Clear,270,2013-02-23 21:35:00
4:55 PM,53.6,44.6,72,29.85,10.0,WNW,4.6,-,N/A,,Partly Cloudy,300,2013-02-23 21:55:00
5:15 PM,53.6,42.8,67,29.85,10.0,NW,5.8,-,N/A,,Scattered Clouds,310,2013-02-23 22:15:00
5:35 PM,51.8,42.8,71,29.85,10.0,WNW,3.5,-,N/A,,Scattered Clouds,300,2013-02-23 22:35:00
5:55 PM,51.8,42.8,71,29.85,10.0,WNW,4.6,-,N/A,,Mostly Cloudy,290,2013-02-23 22:55:00
6:15 PM,51.8,42.8,71,29.84,10.0,Calm,Calm,-,N/A,,Overcast,0,2013-02-23 23:15:00
6:35 PM,48.2,44.6,87,29.84,10.0,Calm,Calm,-,N/A,,Mostly Cloudy,0,2013-02-23 23:35:00
6:55 PM,46.4,44.6,93,29.83,10.0,Calm,Calm,-,N/A,,Partly Cloudy,0,2013-02-23 23:55:00
7:15 PM,44.6,42.8,93,29.84,10.0,NNW,3.5,-,N/A,,Clear,330,2013-02-24 00:15:00
7:35 PM,46.4,42.8,87,29.84,10.0,Calm,Calm,-,N/A,,Clear,0,2013-02-24 00:35:00
7:55 PM,44.6,42.8,93,29.84,10.0,Calm,Calm,-,N/A,,Clear,0,2013-02-24 00:55:00
8:15 PM,44.6,42.8,93,29.84,10.0,Calm,Calm,-,N/A,,Clear,0,2013-02-24 01:15:00
8:35 PM,44.6,42.8,93,29.83,10.0,Calm,Calm,-,N/A,,Clear,0,2013-02-24 01:35:00
8:55 PM,42.8,42.8,100,29.83,10.0,Calm,Calm,-,N/A,,Clear,0,2013-02-24 01:55:00
9:15 PM,41.0,39.2,93,29.83,10.0,Calm,Calm,-,N/A,,Clear,0,2013-02-24 02:15:00
9:35 PM,42.8,41.0,93,29.84,10.0,Calm,Calm,-,N/A,,Mostly Cloudy,0,2013-02-24 02:35:00
9:55 PM,42.8,41.0,93,29.86,10.0,Calm,Calm,-,N/A,,Overcast,0,2013-02-24 02:55:00
10:15 PM,42.8,41.0,93,29.86,10.0,Calm,Calm,-,N/A,,Scattered Clouds,0,2013-02-24 03:15:00
10:35 PM,42.8,41.0,93,29.86,10.0,Calm,Calm,-,N/A,,Scattered Clouds,0,2013-02-24 03:35:00
10:55 PM,41.0,39.2,93,29.86,10.0,Calm,Calm,-,N/A,,Mostly Cloudy,0,2013-02-24 03:55:00
11:15 PM,41.0,39.2,93,29.87,9.0,Calm,Calm,-,N/A,,Mostly Cloudy,0,2013-02-24 04:15:00
11:35 PM,41.0,39.2,93,29.87,10.0,Calm,Calm,-,N/A,,Overcast,0,2013-02-24 04:35:00
11:55 PM,42.8,42.8,100,29.87,10.0,WSW,3.5,-,N/A,,Overcast,250,2013-02-24 04:55:00